Weather History for Gilze-Rijen, Netherlands

Change the Weather History Date:

Tuesday, March 18, 2014

  Actual Average Record
Temperature  
Mean Temperature 46 °F -  
Max Temperature 51 °F 53 °F 59 °F (2004)
Min Temperature 41 °F 37 °F 28 °F (2006)
Degree Days  
Heating Degree Days 19    
Moisture  
Dew Point 44 °F    
Average Humidity 80    
Maximum Humidity 93    
Minimum Humidity 52    
Precipitation  
Precipitation 0.12 in - - ()
Sea Level Pressure  
Sea Level Pressure 29.97 in    
Wind  
Wind Speed 8 mph ()    
Max Wind Speed 17 mph    
Max Gust Speed 29 mph    
Visibility 6.0 miles    
Events Rain    
Averages and records for this station are not official NWS values.
T = Trace of Precipitation, MM = Missing Value Source: Averaged Metar Reports

Daily Weather History Graph

Daily Weather History Graph

Search for Another Location

Airport:

Trip Planner

Search our weather history database for the weather conditions in past years. The results will help you decide how hot, cold, wet, or windy it might be!

Date:

Astronomy

Mar. 18, 2014 Rise Set
Actual Time 6:47 AM CET 6:49 PM CET
Civil Twilight 6:14 AM CET 7:23 PM CET
Nautical Twilight 5:35 AM CET 8:02 PM CET
Astronomical Twilight 4:54 AM CET 8:43 PM CET
Moon 9:08 PM CET (3/18) 7:14 AM CET (3/18)
Length of Visible Light 13h 08m
Length of Day
12h 01m
Full, 97% of the Moon is Illuminated
Mar 18
Full
Mar 24
Last Quarter
Mar 30
New
Apr 7
First Quarter
Apr 15
Full

Hourly Weather History & Observations

Time (CET) Temp. Windchill Dew Point Humidity Pressure Visibility Wind Dir Wind Speed Gust Speed Precip Events Conditions
12:00 AM 46 °F - 40 °F 72% 30.10 in 17 mi SW 4.5 mph - -   Overcast
12:25 AM 48.2 °F - 41.0 °F 76% 30.09 in 6.2 mi SW 4.6 mph - N/A   Overcast
12:55 AM 46.4 °F 45.2 °F 41.0 °F 81% 30.09 in 6.2 mi SSW 3.5 mph - N/A   Overcast
1:00 AM 46 °F - 41 °F 76% 30.09 in 15 mi SSW 4.5 mph - -   Partly Cloudy
1:25 AM 46.4 °F 44.3 °F 41.0 °F 81% 30.06 in 6.2 mi SW 4.6 mph - N/A   Overcast
1:55 AM 46.4 °F 44.3 °F 41.0 °F 81% 30.06 in 6.2 mi SW 4.6 mph - N/A   Overcast
2:00 AM 46 °F - 41 °F 77% 30.09 in 12 mi SW 4.5 mph - -   Mostly Cloudy
2:25 AM 46.4 °F 44.3 °F 42.8 °F 87% 30.06 in 6.2 mi SW 4.6 mph - N/A   Partly Cloudy
2:55 AM 46.4 °F 43.5 °F 42.8 °F 87% 30.04 in 6.2 mi WSW 5.8 mph - N/A   Mostly Cloudy
3:00 AM 46 °F - 43 °F 85% 30.06 in 6 mi SW 4.5 mph - -   Scattered Clouds
3:25 AM 46.4 °F - 42.8 °F 87% 30.04 in 5.6 mi SW 2.3 mph - N/A   Mostly Cloudy
3:29 AM 46.4 °F - 42.8 °F 87% 30.04 in 5.6 mi SW 2.3 mph - N/A   Mostly Cloudy
3:39 AM 46.4 °F - 42.8 °F 87% 30.04 in 4.3 mi SW 2.3 mph - N/A   Overcast
3:55 AM 46.4 °F 45.2 °F 44.6 °F 93% 30.04 in 4.3 mi SW 3.5 mph - N/A   Overcast
4:16 AM 46.4 °F 44.3 °F 44.6 °F 93% 30.01 in 4.3 mi SW 4.6 mph - N/A   Overcast
4:25 AM 46.4 °F 44.3 °F 44.6 °F 93% 30.01 in 4.3 mi SW 4.6 mph - N/A   Overcast
4:30 AM 46.4 °F 43.5 °F 44.6 °F 93% 30.01 in 4.3 mi SW 5.8 mph - N/A   Overcast
4:44 AM 46.4 °F 44.3 °F 44.6 °F 93% 30.01 in 3.7 mi SSW 4.6 mph - N/A   Overcast
4:55 AM 46.4 °F 43.5 °F 44.6 °F 93% 30.01 in 3.7 mi SW 5.8 mph - N/A   Overcast
4:58 AM 48.2 °F - 44.6 °F 87% 30.01 in 3.7 mi SW 5.8 mph - N/A   Overcast
5:00 AM 48.2 °F - 44.6 °F 87% 30.01 in 3.7 mi SW 5.8 mph - N/A   Overcast
5:25 AM 48.2 °F - 44.6 °F 87% 29.98 in 3.7 mi SW 6.9 mph - N/A   Overcast
5:55 AM 48.2 °F - 42.8 °F 82% 29.98 in 5.0 mi SW 8.1 mph - N/A   Overcast
6:25 AM 48.2 °F - 42.8 °F 82% 29.98 in 5.6 mi WSW 8.1 mph - N/A   Overcast
6:55 AM 48.2 °F - 42.8 °F 82% 29.98 in 5.6 mi WSW 8.1 mph - N/A   Overcast
7:00 AM 48 °F - 44 °F 79% 30.00 in 5 mi WSW 6.7 mph - -   Mist
7:25 AM 48.2 °F - 42.8 °F 82% 29.98 in 5.0 mi WSW 6.9 mph - N/A   Overcast
7:55 AM 48.2 °F - 42.8 °F 82% 29.98 in 5.0 mi WSW 6.9 mph - N/A   Overcast
8:00 AM 48 °F - 44 °F 80% 30.00 in 5 mi WSW 6.7 mph - -   Mist
8:00 AM 48.2 °F - 44.6 °F 87% 29.98 in 4.3 mi WSW 6.9 mph - N/A   Overcast
8:25 AM 48.2 °F - 44.6 °F 87% 29.98 in 4.3 mi WSW 6.9 mph - N/A   Overcast
8:55 AM 48.2 °F - 44.6 °F 87% 30.01 in 3.7 mi West 9.2 mph - N/A   Overcast
8:56 AM 48.2 °F - 44.6 °F 87% 30.01 in 3.7 mi WSW 9.2 mph - N/A   Overcast
9:00 AM 48 °F - 44 °F 81% 30.01 in 4 mi WSW 8.9 mph - -   Mist
9:25 AM 48.2 °F - 44.6 °F 87% 29.98 in 3.7 mi WSW 9.2 mph - N/A   Overcast
9:55 AM 48.2 °F - 42.8 °F 82% 29.98 in 5.0 mi WSW 10.4 mph - N/A   Overcast
9:56 AM 48.2 °F - 42.8 °F 82% 29.98 in 5.0 mi WSW 10.4 mph - N/A   Overcast
10:00 AM 49 °F - 44 °F 75% 29.99 in 5 mi WSW 8.9 mph - -   Mist
10:13 AM 48.2 °F - 44.6 °F 87% 29.98 in 5.0 mi SW 8.1 mph - N/A   Overcast
10:25 AM 48.2 °F - 44.6 °F 87% 29.98 in 5.0 mi SW 8.1 mph - N/A   Overcast
10:37 AM 50.0 °F - 44.6 °F 82% 29.98 in 5.0 mi WSW 9.2 mph - N/A   Overcast
10:55 AM 50.0 °F - 44.6 °F 82% 29.98 in 5.0 mi WSW 11.5 mph 23.0 mph N/A   Mostly Cloudy
11:00 AM 50 °F - 44 °F 74% 29.99 in 5 mi WSW 8.9 mph - -   Mist
11:25 AM 50.0 °F - 44.6 °F 82% 29.98 in 5.6 mi WSW 10.4 mph - N/A   Overcast
11:27 AM 50.0 °F - 44.6 °F 82% 29.98 in 5.6 mi WSW 11.5 mph - N/A   Overcast
11:34 AM 50.0 °F - 44.6 °F 82% 29.98 in 5.6 mi WSW 10.4 mph - N/A   Overcast
11:38 AM 50.0 °F - 44.6 °F 82% 29.98 in 5.6 mi WSW 11.5 mph - N/A   Overcast
11:49 AM 50.0 °F - 44.6 °F 82% 29.98 in 5.6 mi WSW 10.4 mph - N/A   Mostly Cloudy
11:55 AM 50.0 °F - 44.6 °F 82% 29.98 in 6.2 mi SW 10.4 mph - N/A   Overcast
12:00 PM 50 °F - 44 °F 73% 29.98 in 6 mi SW 11.2 mph - -   Overcast
12:08 PM 50.0 °F - 44.6 °F 82% 29.98 in 6.2 mi WSW 10.4 mph - N/A   Mostly Cloudy
12:25 PM 51.8 °F - 44.6 °F 76% 29.95 in 6.2 mi WSW 9.2 mph - N/A   Overcast
12:47 PM 51.8 °F - 44.6 °F 76% 29.95 in 6.2 mi WSW 9.2 mph - N/A   Overcast
12:48 PM 51.8 °F - 44.6 °F 76% 29.95 in 6.2 mi WSW 9.2 mph - N/A   Overcast
12:55 PM 51.8 °F - 44.6 °F 76% 29.95 in 6.2 mi WSW 9.2 mph - N/A   Overcast
1:00 PM 51 °F - 44 °F 68% 29.97 in 7 mi WSW 11.2 mph - -   Partly Cloudy
1:25 PM 50.0 °F - 42.8 °F 76% 29.95 in 5.0 mi WSW 10.4 mph - N/A   Haze
1:55 PM 50.0 °F - 42.8 °F 76% 29.95 in 6.2 mi West 11.5 mph - N/A   Overcast
2:00 PM 50 °F - 43 °F 68% 29.96 in 7 mi West 8.9 mph - -   Overcast
2:25 PM 50.0 °F - 42.8 °F 76% 29.95 in 6.2 mi West 11.5 mph - N/A   Overcast
2:55 PM 50.0 °F - 42.8 °F 76% 29.92 in 6.2 mi WSW 12.7 mph - N/A   Overcast
3:00 PM 49 °F - 42 °F 69% 29.94 in 8 mi West 13.4 mph - - Rain Light Rain Showers
3:21 PM 50.0 °F - 42.8 °F 76% 29.92 in 6.2 mi WSW 11.5 mph - N/A   Overcast
3:25 PM 50.0 °F - 42.8 °F 76% 29.92 in 6.2 mi WSW 11.5 mph - N/A   Overcast
3:55 PM 50.0 °F - 41.0 °F 71% 29.92 in 6.2 mi WSW 9.2 mph - N/A   Overcast
4:00 PM 50 °F - 40 °F 59% 29.93 in 16 mi WSW 11.2 mph - - Rain Rain
4:03 PM 50.0 °F - 41.0 °F 71% 29.92 in 6.2 mi WSW 12.7 mph - N/A   Overcast
4:25 PM 51.8 °F - 41.0 °F 67% 29.92 in 6.2 mi WSW 10.4 mph - N/A   Mostly Cloudy
4:33 PM 51.8 °F - 41.0 °F 67% 29.92 in 6.2 mi WSW 11.5 mph - N/A   Mostly Cloudy
4:55 PM 51.8 °F - 39.2 °F 62% 29.92 in 6.2 mi WSW 15.0 mph - N/A   Overcast
5:00 PM 52 °F - 40 °F 52% 29.92 in 22 mi WSW 11.2 mph - -   Partly Cloudy
5:25 PM 51.8 °F - 41.0 °F 67% 29.89 in 6.2 mi WSW 11.5 mph - N/A   Mostly Cloudy
5:48 PM 51.8 °F - 41.0 °F 67% 29.89 in 6.2 mi WSW 10.4 mph - N/A   Overcast
5:50 PM 51.8 °F - 41.0 °F 67% 29.89 in 6.2 mi SW 10.4 mph - N/A   Overcast
5:55 PM 51.8 °F - 41.0 °F 67% 29.89 in 6.2 mi WSW 11.5 mph - N/A   Overcast
6:00 PM 51 °F - 40 °F 57% 29.91 in 28 mi WSW 11.2 mph - -   Partly Cloudy
6:25 PM 51.8 °F - 41.0 °F 67% 29.89 in 6.2 mi SW 11.5 mph - N/A   Overcast
6:55 PM 50.0 °F - 42.8 °F 76% 29.92 in 6.2 mi SW 10.4 mph - N/A   Overcast
7:00 PM 51 °F - 42 °F 61% 29.92 in 22 mi WSW 11.2 mph - - Rain Rain
7:25 PM 51.8 °F - 42.8 °F 71% 29.92 in 6.2 mi WSW 15.0 mph 26.5 mph N/A Rain Light Rain
7:26 PM 51.8 °F - 42.8 °F 71% 29.92 in 6.2 mi WSW 13.8 mph - N/A   Overcast
7:37 PM 51.8 °F - 42.8 °F 71% 29.92 in 6.2 mi WSW 16.1 mph - N/A   Overcast
7:55 PM 51.8 °F - 42.8 °F 71% 29.92 in 6.2 mi WSW 15.0 mph - N/A   Overcast
8:00 PM 50 °F - 44 °F 74% 29.94 in 7 mi WSW 13.4 mph - - Rain Light Rain Showers
8:21 PM 48.2 °F - 44.6 °F 87% 29.92 in 6.2 mi West 13.8 mph - N/A Rain Light Rain
8:25 PM 48.2 °F - 44.6 °F 87% 29.92 in 6.2 mi West 12.7 mph - N/A   Overcast
8:39 PM 48.2 °F - 46.4 °F 93% 29.92 in 6.2 mi West 10.4 mph - N/A Rain Rain
8:55 PM 48.2 °F - 46.4 °F 93% 29.95 in 3.7 mi West 13.8 mph - N/A Rain Light Rain Showers
9:00 PM 48 °F - 46 °F 92% 29.95 in 3 mi WSW 13.4 mph - - Rain Rain
9:05 PM 48.2 °F - 46.4 °F 93% 29.95 in 6.2 mi West 12.7 mph - N/A Rain Rain Showers
9:09 PM 48.2 °F - 46.4 °F 93% 29.95 in 6.2 mi West 11.5 mph 23.0 mph N/A Rain Light Rain Showers
9:10 PM 48.2 °F - 46.4 °F 93% 29.95 in 6.2 mi West 12.7 mph - N/A Rain Light Rain
9:20 PM 48.2 °F - 46.4 °F 93% 29.95 in 6.2 mi West 13.8 mph - N/A   Mostly Cloudy
9:25 PM 48.2 °F - 46.4 °F 93% 29.95 in 6.2 mi West 13.8 mph - N/A   Mostly Cloudy
9:35 PM 48.2 °F - 46.4 °F 93% 29.95 in 6.2 mi WSW 12.7 mph - N/A   Overcast
9:55 PM 50.0 °F - 46.4 °F 87% 29.95 in 6.2 mi West 10.4 mph - N/A   Overcast
10:00 PM 49 °F - 46 °F 87% 29.96 in 9 mi West 11.2 mph - - Rain Rain
10:21 PM 50.0 °F - 46.4 °F 87% 29.95 in 4.3 mi West 13.8 mph - N/A Rain Light Rain
10:25 PM 50.0 °F - 46.4 °F 87% 29.95 in 4.3 mi West 12.7 mph - N/A   Heavy Drizzle
10:26 PM 50.0 °F - 46.4 °F 87% 29.95 in 5.6 mi West 11.5 mph - N/A Rain Light Rain
10:36 PM 50.0 °F - 46.4 °F 87% 29.95 in 3.7 mi West 11.5 mph - N/A Rain Rain
10:41 PM 50.0 °F - 46.4 °F 87% 29.95 in 6.2 mi West 12.7 mph - N/A Rain Light Rain
10:55 PM 50.0 °F - 46.4 °F 87% 29.95 in 6.2 mi West 12.7 mph - N/A   Overcast
11:00 PM 50 °F - 45 °F 77% 29.98 in 11 mi West 13.4 mph - - Rain Light Rain Showers
11:05 PM 50.0 °F - 44.6 °F 82% 29.98 in 6.2 mi West 15.0 mph - N/A   Overcast
11:25 PM 51.8 °F - 44.6 °F 76% 29.98 in 6.2 mi West 17.3 mph 28.8 mph N/A   Overcast
11:55 PM 51.8 °F - 44.6 °F 76% 29.98 in 6.2 mi West 15.0 mph - N/A   Overcast